Wind_Speed
16 16 16 17 17 17 18 18 18 18 19 19 19 19 20 20 21 22 22 23 23 24 24 24 24 24 25 26 26 27 27 27 27 26 26 26 26 26 27 27 27 28 29 29 29 28 27 27 30 31 30 30 31 31 30 32 35 36 37 37 37 35 34
17 17 17 17 18 18 19 19 19 19 19 19 20 20 21 21 21 22 23 23 23 24 24 24 24 24 25 26 26 27 28 28 27 27 26 26 26 26 26 26 27 28 29 29 29 29 28 27 28 29 30 31 31 30 31 33 35 37 38 38 38 36 34
17 17 17 18 18 19 19 20 20 20 20 20 20 20 21 22 22 23 24 24 24 24 24 24 25 25 25 26 26 27 27 28 28 27 27 26 26 27 27 27 27 28 29 29 29 29 29 28 28 29 31 32 32 30 32 34 37 38 38 39 39 37 34
17 17 18 18 18 19 19 20 20 20 21 21 21 21 22 23 23 24 24 24 24 24 24 25 25 26 26 26 27 27 27 27 28 28 27 27 27 27 27 27 28 29 29 30 30 29 29 30 30 29 32 34 34 33 33 34 37 39 38 38 39 38 36
17 17 18 18 19 19 20 20 21 21 21 22 22 23 23 24 24 25 25 25 25 25 25 25 26 26 27 27 27 27 27 28 28 28 28 27 27 27 28 28 28 29 30 30 30 30 30 30 30 30 31 34 35 35 35 34 36 40 40 39 38 38 38
17 17 18 18 19 20 20 21 22 22 22 23 23 24 25 25 25 26 26 26 26 26 26 26 27 27 27 27 28 28 28 28 29 29 28 28 28 28 28 29 29 29 30 30 31 31 30 30 30 30 30 32 33 33 34 35 35 38 39 38 36 36 39
17 18 18 19 19 20 21 21 22 23 23 23 24 25 25 26 26 26 26 26 26 27 27 27 27 28 28 28 28 28 28 29 29 29 29 29 29 29 29 29 30 30 30 30 30 30 30 30 30 30 30 31 32 32 32 31 31 34 36 35 35 35 38
17 18 19 19 20 20 21 22 23 23 24 24 25 25 26 26 27 27 27 27 27 27 28 28 28 28 28 28 29 29 29 29 29 29 30 30 30 29 29 29 30 30 30 29 28 29 29 29 29 29 30 29 29 31 31 29 27 30 34 34 35 35 37
18 19 20 20 21 21 22 23 23 24 24 25 26 26 26 27 27 27 27 27 27 28 28 29 29 29 29 29 29 30 30 30 30 30 30 30 30 30 30 29 30 31 31 30 28 28 28 28 28 29 30 29 29 29 31 30 26 26 32 35 34 34 36
19 20 20 21 22 23 24 25 25 25 25 26 26 27 27 27 27 28 28 28 28 28 29 29 29 30 30 30 30 30 31 31 31 31 31 30 30 31 30 30 30 31 32 31 29 29 28 28 28 28 29 29 30 29 29 30 27 24 29 34 34 34 35
21 21 22 23 23 24 25 26 26 26 27 27 27 27 28 28 28 28 29 29 29 29 29 29 30 30 30 30 31 31 32 32 32 32 32 31 31 31 31 31 31 31 32 32 31 30 29 28 27 28 29 29 30 30 29 29 27 24 25 30 33 35 35
22 23 24 24 25 26 27 28 28 28 29 29 29 29 30 30 30 30 29 30 30 30 30 30 30 30 31 31 32 32 33 33 33 33 34 33 32 32 31 32 32 32 32 33 32 31 30 30 29 27 28 29 29 30 29 29 27 24 24 28 32 35 35
24 25 26 26 27 28 29 30 31 31 31 30 30 31 31 32 32 32 31 31 31 31 31 30 31 31 32 32 32 33 33 34 34 34 35 35 34 34 33 33 33 32 32 33 33 33 32 31 31 29 28 28 28 30 30 30 28 25 23 26 31 34 33
26 27 28 28 29 30 30 31 32 33 33 32 32 32 32 33 33 33 33 33 33 32 32 32 32 32 33 33 34 34 34 34 35 35 35 36 36 36 35 34 34 33 33 33 33 34 33 33 32 31 30 28 28 28 30 30 29 27 25 24 28 33 33
28 29 30 30 31 32 32 33 33 34 34 34 33 33 34 34 35 35 35 34 34 34 34 33 33 33 34 34 34 35 35 35 35 35 36 36 37 37 37 36 36 35 34 33 34 35 34 34 34 33 31 30 28 27 29 30 30 31 30 25 25 31 35
30 31 32 32 33 33 34 34 35 35 35 35 35 35 36 36 36 36 35 35 35 35 35 35 35 35 35 35 35 35 35 35 36 36 36 37 37 37 38 38 38 37 36 34 35 36 36 35 35 34 33 32 30 28 28 29 30 31 32 29 27 29 32
31 32 33 34 34 35 35 36 37 37 37 37 37 37 37 37 37 37 37 36 36 36 36 36 36 36 36 36 36 36 36 37 37 37 37 37 38 38 38 38 39 39 38 37 35 36 37 37 36 35 34 33 32 30 28 28 29 30 32 32 30 30 30
33 34 35 35 35 35 36 38 38 38 38 39 39 39 38 38 38 38 38 38 37 37 37 37 37 37 37 37 37 38 38 38 38 38 39 39 39 39 39 39 40 40 40 39 38 36 37 37 38 37 36 35 34 32 30 28 28 30 32 32 32 31 29
34 35 35 35 36 37 38 38 38 39 39 39 39 39 38 38 38 38 38 38 38 37 37 38 38 38 38 38 38 38 38 39 39 39 39 40 40 40 40 41 41 41 41 41 40 39 38 38 38 38 37 37 36 34 32 30 29 29 31 32 33 33 30
35 36 36 36 37 38 39 39 39 39 39 39 38 38 38 37 37 37 38 38 38 38 38 38 38 38 38 38 38 38 38 39 40 40 41 41 41 41 42 42 42 42 42 42 42 41 40 39 39 39 39 38 37 36 35 33 31 30 30 31 33 35 34
36 36 37 38 39 40 39 38 38 39 38 38 38 37 37 37 37 37 38 38 38 38 38 37 37 37 37 38 38 39 39 40 40 41 42 43 43 43 43 43 44 44 44 43 43 42 42 41 40 39 40 40 39 37 36 35 34 32 31 31 31 33 36
37 38 39 40 41 40 38 38 38 38 38 37 37 37 37 37 37 38 38 38 38 38 38 37 37 37 37 38 38 39 40 41 41 42 43 44 44 45 45 45 45 45 45 45 45 44 44 43 42 40 40 41 41 39 38 37 36 35 33 32 31 31 34
38 39 39 40 40 38 38 38 38 37 37 37 37 37 37 37 37 38 38 38 38 38 38 38 38 39 39 39 40 41 42 43 44 44 45 45 46 47 48 48 48 48 48 47 47 47 46 45 45 43 41 41 42 41 40 38 37 36 35 34 32 32 33
39 39 39 39 38 37 37 37 37 37 38 38 37 37 37 37 37 37 37 38 38 38 38 39 40 40 41 42 43 43 44 44 45 46 46 47 47 48 49 50 51 51 51 51 50 49 49 48 47 46 44 43 43 43 42 41 39 38 37 36 34 33 32
38 38 39 38 37 36 37 37 37 38 38 38 37 37 37 37 37 37 37 38 38 39 40 41 42 42 43 43 43 43 43 43 44 44 45 45 46 47 47 48 50 51 52 53 52 52 51 51 50 49 47 45 44 44 44 43 41 40 39 38 37 35 33
38 38 37 36 35 36 36 37 37 38 37 37 36 36 36 36 37 37 37 38 39 40 41 42 42 42 41 41 41 41 42 42 42 43 43 44 45 46 46 47 48 49 50 52 53 53 53 53 53 52 50 49 46 46 46 45 43 42 40 40 38 37 36
37 37 35 34 35 35 36 37 37 37 36 35 35 35 36 36 36 37 38 39 40 41 41 40 40 40 39 39 40 40 41 42 42 43 44 45 46 47 48 48 49 49 50 51 52 53 53 53 54 54 53 52 50 47 46 46 46 44 42 41 40 38 38
35 34 33 33 34 35 36 36 36 35 34 34 35 35 35 35 36 37 38 40 40 39 39 38 38 38 39 39 40 41 42 43 44 45 46 47 48 49 50 51 51 52 52 52 53 53 53 54 54 54 54 54 53 50 48 47 47 46 45 43 42 40 39
32 32 32 33 34 34 35 35 35 34 34 34 34 34 34 35 36 38 38 38 38 37 37 37 38 38 39 40 41 42 44 44 45 46 47 48 49 50 51 52 53 54 54 54 54 54 54 54 54 54 54 53 54 53 50 48 48 47 47 46 44 42 41
30 30 31 32 33 34 34 34 33 33 33 33 33 34 35 36 37 37 36 36 35 35 36 36 37 38 39 40 41 42 43 44 45 46 47 48 49 51 52 52 53 54 54 55 55 55 55 54 54 54 53 53 53 54 52 50 49 48 48 48 46 44 42
28 29 30 31 32 33 33 32 32 32 32 32 33 34 35 35 35 35 34 34 34 35 36 37 38 39 39 40 41 42 43 44 45 46 47 48 49 49 50 51 52 52 53 54 54 54 54 53 53 53 53 52 52 53 53 52 50 49 48 49 48 46 43
27 28 30 31 31 31 31 31 31 31 31 32 33 34 34 34 33 33 33 34 34 35 36 37 38 39 39 40 41 42 42 43 44 44 45 46 47 48 49 50 51 51 52 52 52 52 52 52 51 51 51 51 51 52 53 54 52 50 49 49 49 46 44
27 28 29 30 30 31 30 30 30 30 31 32 32 32 32 32 32 32 33 34 35 36 37 37 38 39 39 40 41 41 42 42 42 43 44 45 46 47 48 49 50 51 51 50 50 50 49 49 49 49 48 48 49 51 52 52 52 51 50 50 50 48 46
27 28 29 29 30 29 29 29 30 31 31 31 31 30 30 31 31 32 33 34 35 36 37 38 38 39 39 40 40 40 41 41 42 42 43 44 45 46 48 49 51 51 50 48 46 45 44 44 45 45 44 44 45 48 49 49 51 52 51 51 50 49 49
27 28 28 28 28 28 28 29 30 30 30 29 29 29 30 30 31 32 33 34 35 36 37 38 38 39 40 40 40 40 41 41 42 42 42 43 44 46 48 50 51 51 49 45 41 39 37 36 37 37 37 38 39 43 44 42 44 49 52 52 52 51 50
27 27 27 26 27 27 28 29 29 29 28 28 29 29 29 30 31 32 34 35 35 36 37 38 38 39 39 39 40 41 41 41 41 41 42 43 43 45 46 48 50 49 46 42 38 34 31 29 27 27 28 28 31 34 35 31 33 41 49 53 53 51 50
25 25 25 25 26 27 28 28 28 27 27 28 28 28 29 30 31 32 33 34 35 36 36 37 38 38 38 39 39 40 40 41 41 41 42 43 43 44 45 47 49 48 43 40 36 33 29 25 21 20 19 20 21 25 29 28 26 31 39 47 52 53 51
Wind_Direction
281 284 286 288 289 289 288 288 289 291 293 293 294 294 293 294 296 297 299 300 301 301 301 302 303 304 304 304 306 307 307 307 307 307 307 308 309 308 307 307 307 304 302 299 295 290 282 276 274 271 268 267 268 271 272 263 257 255 255 255 255 255 256
284 286 288 289 290 290 290 291 292 293 293 293 293 294 294 295 296 297 298 299 299 300 300 301 302 302 302 302 304 306 306 307 307 306 307 308 309 309 307 307 307 305 303 300 295 291 286 279 274 272 270 267 265 269 272 268 263 258 255 254 254 253 254
285 286 287 288 289 291 292 292 293 293 293 293 293 293 293 294 296 297 297 298 298 299 300 301 301 301 301 301 303 304 306 307 307 307 308 309 310 310 309 308 307 306 304 302 297 293 288 283 277 272 270 269 265 266 269 268 266 261 255 254 253 252 253
281 282 284 288 290 292 292 293 293 293 294 294 294 295 295 295 296 297 297 298 299 300 301 301 301 300 300 301 302 304 305 306 306 307 308 310 311 312 311 309 307 305 303 301 299 295 289 285 281 276 272 270 266 266 271 271 267 261 257 255 254 250 250
280 283 286 289 290 292 293 294 295 295 296 297 297 297 297 297 297 298 299 300 300 300 301 301 300 300 300 301 302 303 304 305 305 306 308 310 311 312 313 312 310 307 304 302 300 297 292 287 283 280 275 272 268 268 273 275 269 261 257 256 254 250 247
282 285 288 289 291 293 295 296 297 298 299 299 299 299 299 299 299 300 300 300 300 300 300 300 300 300 300 300 301 303 304 304 305 306 307 308 310 311 313 313 312 311 309 306 302 299 296 291 286 282 279 274 271 268 271 277 270 258 254 255 255 250 247
283 286 289 291 293 294 296 297 298 299 300 301 301 301 301 301 302 301 301 301 301 300 300 300 299 299 299 300 300 302 302 303 303 304 305 306 308 309 311 311 312 313 313 312 307 300 297 295 290 285 282 278 274 269 269 276 269 254 251 254 254 249 245
284 288 290 291 292 294 295 296 297 299 300 302 303 303 303 303 303 302 302 302 302 301 300 299 299 299 299 300 300 301 301 302 302 302 303 303 305 306 307 308 309 310 312 314 311 303 296 294 292 289 285 281 276 270 268 274 270 254 248 250 251 250 246
285 288 289 291 291 292 293 294 296 298 300 303 304 304 304 303 303 303 302 302 302 301 300 299 299 299 299 300 301 302 302 302 301 301 301 301 302 303 304 305 306 307 309 311 313 308 300 294 292 290 288 283 278 272 269 272 272 259 250 247 248 250 248
285 287 288 289 289 291 292 294 297 299 301 303 304 304 304 304 304 303 302 301 301 300 300 299 299 299 300 301 301 302 302 302 302 301 301 301 301 302 302 302 303 304 305 308 310 311 307 300 294 290 289 286 280 275 270 270 271 265 255 248 245 247 248
284 285 286 287 288 290 292 295 298 299 300 302 303 303 303 303 303 302 301 301 300 299 299 299 300 300 300 300 300 300 301 301 301 301 301 301 301 301 301 300 300 300 301 304 306 308 308 306 300 294 290 288 283 278 272 270 269 267 260 252 248 246 246
283 285 286 287 289 291 292 295 297 298 300 301 301 301 301 301 300 300 301 301 300 300 299 299 300 300 299 299 299 299 299 299 300 300 301 301 301 300 300 299 299 298 299 300 302 304 305 305 304 300 295 291 287 282 275 270 268 266 261 253 249 248 247
283 285 286 287 289 291 293 295 297 299 300 300 300 300 299 299 298 299 299 299 300 300 300 300 300 300 299 299 298 297 297 298 298 299 299 300 300 300 299 298 297 297 297 297 298 299 300 301 302 302 299 295 291 286 279 272 266 265 263 256 250 250 250
282 283 285 288 290 291 293 295 297 299 300 299 299 299 299 299 298 298 298 298 299 299 299 300 299 299 299 299 299 298 297 297 296 297 297 298 298 299 298 297 296 296 296 295 295 295 296 297 298 299 300 298 295 290 283 275 267 262 263 263 254 251 250
280 282 285 288 290 293 294 296 297 298 299 299 298 299 299 299 299 298 298 298 298 298 298 298 298 298 298 299 299 298 298 297 296 296 295 295 296 296 296 296 295 295 295 294 293 293 293 293 293 295 296 297 297 293 286 279 271 263 263 265 260 253 250
279 282 285 288 291 293 295 297 299 300 300 300 299 299 300 300 299 298 298 298 298 297 297 297 297 297 298 298 298 298 298 297 296 295 294 293 293 293 294 294 294 294 293 292 292 291 291 290 290 290 291 293 294 294 290 283 276 268 264 263 262 259 255
279 282 285 288 291 294 296 299 301 301 301 301 301 300 300 299 299 299 299 298 298 298 298 297 297 297 297 298 297 297 297 296 296 295 294 293 292 291 291 291 291 292 292 291 290 289 289 289 288 288 288 289 290 291 290 286 280 273 267 263 262 263 265
279 282 285 289 292 295 298 300 301 301 300 300 300 300 300 301 301 301 300 300 300 300 300 299 299 298 298 297 297 297 296 295 295 294 293 293 292 291 290 289 289 289 289 289 288 287 286 286 286 286 286 286 286 287 288 287 283 276 270 266 261 262 267
279 283 286 290 293 295 298 299 299 298 298 299 300 301 302 302 302 302 302 302 302 302 301 301 300 300 299 299 298 297 296 296 295 294 293 292 291 290 289 288 287 286 286 286 285 284 283 283 283 283 284 283 283 284 284 285 285 280 274 268 261 261 265
280 284 288 291 293 295 297 297 297 297 298 300 301 302 303 303 303 303 303 303 303 302 302 302 302 301 301 300 299 299 298 297 297 296 295 293 292 290 289 287 286 285 283 283 282 281 280 280 280 280 280 281 281 281 281 281 282 282 279 272 264 261 261
282 285 288 290 293 295 296 295 296 298 300 302 303 304 304 304 304 304 304 304 304 304 304 304 303 303 302 302 301 301 300 299 298 298 297 296 294 292 290 289 287 285 284 282 280 279 278 277 276 276 277 277 278 278 278 278 278 279 279 276 269 263 258
283 286 288 291 292 293 294 295 297 299 302 304 305 305 305 305 305 306 306 306 306 306 306 305 304 304 303 302 302 301 300 300 299 298 297 296 295 294 292 291 289 287 285 283 281 279 277 275 274 272 272 274 275 275 275 275 275 275 276 276 273 268 260
283 286 289 291 292 292 293 296 299 302 304 306 306 305 306 306 307 308 309 309 308 307 306 306 305 304 303 303 302 301 300 299 298 297 295 294 293 292 291 290 289 287 285 284 282 280 278 276 274 272 270 270 271 272 272 272 272 271 271 272 273 271 265
284 287 290 291 291 292 295 299 302 305 306 306 306 306 307 308 309 309 309 308 307 307 306 305 305 304 304 303 302 301 300 299 298 296 295 293 292 290 289 288 287 285 284 282 281 280 279 277 275 273 270 268 268 268 268 269 269 269 268 268 269 270 268
285 288 290 290 291 294 298 302 304 306 306 306 306 306 308 309 309 309 308 307 307 307 306 306 306 305 305 304 303 302 301 300 298 297 295 294 292 290 288 287 286 284 283 281 279 278 277 276 275 273 271 269 266 266 266 266 266 266 266 265 265 267 268
285 288 289 290 294 298 301 303 305 306 306 305 305 307 308 309 309 308 308 308 308 308 308 308 308 307 306 306 305 304 303 302 301 300 298 297 295 293 291 289 287 285 283 282 280 277 275 273 272 271 270 269 266 264 264 264 263 262 263 263 263 263 264
285 288 290 293 297 300 302 304 305 305 305 304 305 307 308 309 309 309 309 310 310 310 310 310 310 309 309 309 308 308 307 306 305 304 303 301 299 297 295 292 290 287 285 282 280 278 275 273 271 269 267 266 265 263 262 261 261 260 260 260 260 260 260
285 288 292 296 300 302 303 304 304 304 304 305 307 308 309 310 310 310 310 310 311 311 312 312 313 313 313 313 313 312 312 311 310 308 307 305 303 301 299 296 294 291 288 285 282 279 276 273 270 268 266 264 263 261 260 258 258 257 257 257 257 257 258
287 291 296 298 300 302 303 303 303 304 306 307 308 309 309 310 310 310 311 312 312 313 314 314 315 316 316 316 316 315 315 314 313 311 310 309 307 305 302 300 297 294 291 287 284 281 277 273 270 267 265 263 261 259 256 255 255 255 255 255 255 255 255
290 294 297 299 300 301 302 303 304 306 307 308 309 309 309 310 310 311 312 313 313 314 314 315 316 317 317 317 317 317 316 315 314 314 313 311 310 308 306 304 301 298 294 290 286 282 279 275 271 266 263 260 258 257 254 252 251 251 252 253 253 253 253
292 296 298 299 300 301 302 304 306 307 307 308 308 308 309 309 310 311 312 312 313 314 315 316 318 318 319 319 318 318 317 317 316 316 315 314 313 312 310 308 305 302 299 295 290 286 281 276 272 267 262 258 255 254 252 249 248 247 248 249 251 252 253
295 297 298 299 301 302 304 306 306 306 307 307 307 307 308 309 310 311 311 312 314 316 317 319 320 320 320 320 320 320 319 319 319 318 318 318 317 316 314 312 310 307 304 300 295 290 284 278 273 268 262 257 252 250 248 247 245 244 244 246 247 250 251
297 298 299 300 302 304 305 305 305 305 305 305 306 307 308 309 310 311 313 314 316 318 319 321 321 322 322 322 322 322 321 321 321 321 321 321 320 320 319 317 316 314 310 306 300 293 286 280 274 268 262 256 251 247 245 245 243 242 241 242 244 245 248
297 298 300 302 303 304 304 303 303 303 304 304 306 307 308 309 310 312 314 316 318 320 322 323 323 324 324 324 324 324 324 324 325 325 325 325 325 325 324 324 322 320 317 313 305 297 290 283 275 269 263 256 250 246 243 242 241 239 239 240 241 242 244
298 300 301 302 302 301 301 301 301 302 303 305 306 307 308 310 312 315 317 319 321 323 324 326 326 327 327 326 326 327 328 328 329 328 329 330 330 330 331 331 330 328 325 320 313 306 299 290 281 273 266 257 250 244 240 239 240 238 237 238 240 241 242
299 300 300 300 299 298 299 299 300 302 304 305 307 308 310 313 316 318 320 322 324 326 327 328 329 329 329 329 330 331 332 332 331 331 332 333 334 335 337 338 339 337 333 328 323 317 311 303 291 280 268 256 248 240 233 233 240 241 239 239 239 240 242
297 297 297 296 296 297 298 299 301 303 305 306 308 311 314 317 319 321 323 325 327 329 329 330 330 330 331 333 334 335 335 335 335 336 337 338 338 339 340 344 347 347 342 337 333 329 324 319 309 294 273 250 236 226 217 217 229 239 241 242 241 241 242
Height
5824 5824 5823 5823 5823 5822 5822 5822 5821 5821 5820 5820 5819 5819 5818 5817 5816 5815 5814 5813 5812 5811 5810 5809 5807 5806 5805 5804 5802 5801 5800 5799 5798 5796 5794 5792 5791 5789 5787 5785 5784 5782 5781 5780 5779 5778 5778 5777 5776 5775 5775 5775 5775 5776 5777 5777 5777 5778 5779 5779 5780 5781 5782
5822 5822 5821 5821 5821 5820 5820 5819 5819 5819 5818 5818 5817 5816 5815 5815 5814 5813 5812 5811 5810 5809 5807 5806 5805 5804 5803 5801 5800 5799 5797 5796 5794 5793 5791 5790 5788 5786 5784 5783 5781 5779 5778 5777 5775 5774 5774 5774 5773 5772 5771 5771 5772 5773 5773 5773 5774 5774 5774 5775 5776 5777 5778
5820 5820 5820 5819 5819 5818 5818 5817 5817 5816 5816 5815 5815 5814 5813 5812 5811 5811 5810 5809 5808 5807 5805 5804 5802 5801 5800 5799 5797 5796 5794 5793 5791 5790 5788 5787 5785 5783 5781 5779 5778 5776 5775 5773 5772 5771 5770 5770 5770 5769 5768 5768 5768 5769 5769 5769 5769 5769 5770 5770 5771 5774 5775
5818 5818 5818 5817 5817 5816 5816 5815 5815 5814 5814 5813 5812 5812 5811 5810 5809 5808 5807 5806 5805 5804 5803 5801 5800 5799 5797 5796 5794 5793 5792 5790 5789 5787 5785 5784 5782 5780 5778 5776 5775 5773 5772 5770 5769 5768 5767 5766 5765 5765 5765 5764 5764 5764 5764 5764 5764 5764 5765 5766 5767 5769 5770
5816 5816 5816 5815 5815 5814 5814 5813 5812 5812 5811 5811 5810 5809 5808 5807 5806 5805 5804 5803 5802 5801 5800 5798 5797 5796 5794 5793 5792 5790 5789 5787 5786 5784 5782 5781 5779 5777 5775 5773 5771 5770 5768 5767 5766 5765 5764 5762 5761 5761 5761 5759 5760 5760 5759 5759 5759 5759 5760 5761 5763 5765 5766
5814 5814 5814 5813 5813 5812 5811 5811 5810 5809 5809 5808 5807 5806 5805 5804 5803 5802 5801 5800 5799 5798 5797 5796 5794 5793 5792 5790 5789 5787 5786 5784 5783 5781 5779 5778 5776 5774 5772 5770 5768 5767 5765 5763 5762 5761 5760 5759 5757 5757 5757 5755 5755 5756 5755 5754 5754 5754 5755 5757 5759 5761 5761
5812 5812 5812 5811 5811 5810 5809 5808 5808 5807 5806 5805 5805 5804 5802 5801 5800 5799 5798 5797 5796 5795 5794 5793 5791 5790 5789 5787 5786 5785 5783 5781 5780 5778 5776 5774 5773 5771 5770 5768 5766 5764 5762 5760 5759 5757 5756 5755 5753 5753 5752 5751 5751 5751 5751 5751 5749 5749 5751 5752 5754 5755 5756
5809 5809 5809 5809 5808 5808 5807 5806 5806 5805 5804 5803 5802 5801 5800 5798 5797 5796 5795 5794 5793 5792 5791 5790 5788 5787 5786 5784 5783 5782 5780 5779 5777 5775 5774 5772 5770 5769 5767 5765 5763 5761 5759 5758 5756 5754 5753 5751 5750 5749 5748 5747 5747 5746 5746 5746 5745 5745 5747 5748 5748 5750 5751
5807 5807 5807 5806 5806 5806 5805 5804 5803 5802 5801 5800 5799 5798 5797 5796 5794 5793 5792 5791 5789 5788 5787 5786 5785 5784 5782 5781 5780 5778 5777 5775 5774 5772 5771 5769 5767 5766 5764 5762 5761 5758 5756 5755 5754 5752 5750 5748 5747 5745 5744 5743 5742 5742 5742 5742 5741 5741 5742 5742 5744 5746 5747
5804 5804 5804 5804 5804 5803 5802 5802 5801 5799 5798 5797 5796 5795 5794 5793 5791 5790 5789 5787 5786 5785 5784 5783 5782 5780 5779 5778 5776 5775 5774 5772 5771 5769 5768 5767 5765 5763 5761 5759 5757 5755 5753 5752 5750 5748 5747 5745 5744 5742 5741 5739 5738 5737 5738 5738 5738 5737 5737 5737 5739 5741 5742
5801 5802 5802 5802 5801 5801 5800 5799 5798 5797 5796 5795 5793 5792 5791 5790 5789 5787 5786 5785 5783 5782 5781 5779 5778 5777 5775 5774 5773 5771 5770 5769 5767 5766 5764 5763 5762 5760 5758 5756 5754 5752 5750 5748 5747 5745 5743 5742 5740 5739 5738 5736 5735 5734 5733 5734 5734 5733 5732 5733 5734 5735 5737
5799 5799 5799 5799 5798 5798 5797 5796 5795 5794 5793 5792 5791 5789 5788 5787 5786 5785 5783 5782 5780 5779 5777 5776 5774 5773 5772 5770 5769 5768 5766 5765 5763 5762 5760 5759 5758 5757 5755 5753 5751 5749 5748 5745 5744 5742 5740 5738 5737 5736 5734 5733 5731 5730 5729 5729 5730 5730 5728 5728 5729 5730 5731
5796 5796 5796 5796 5795 5795 5794 5793 5792 5791 5790 5789 5788 5787 5785 5784 5783 5782 5780 5779 5777 5776 5774 5772 5771 5769 5768 5767 5765 5764 5762 5761 5759 5758 5756 5755 5754 5753 5751 5749 5747 5746 5745 5743 5740 5738 5737 5735 5734 5732 5731 5729 5728 5726 5725 5725 5725 5726 5724 5724 5724 5725 5726
5794 5793 5793 5793 5792 5792 5791 5790 5789 5788 5787 5786 5784 5783 5782 5781 5779 5778 5776 5775 5773 5772 5770 5769 5767 5765 5764 5762 5761 5760 5758 5757 5755 5754 5752 5750 5749 5748 5747 5745 5744 5742 5741 5739 5737 5735 5733 5732 5730 5729 5728 5726 5725 5723 5721 5721 5721 5721 5720 5720 5720 5721 5722
5791 5791 5790 5790 5789 5789 5788 5787 5786 5785 5783 5782 5781 5780 5778 5777 5775 5774 5772 5771 5769 5768 5766 5765 5763 5761 5760 5758 5756 5755 5754 5752 5751 5749 5748 5746 5744 5743 5742 5741 5739 5738 5737 5735 5734 5732 5730 5728 5726 5725 5724 5722 5721 5720 5718 5717 5717 5716 5715 5715 5715 5716 5716
5788 5788 5787 5787 5786 5785 5784 5783 5782 5781 5780 5778 5777 5776 5774 5773 5771 5770 5768 5767 5765 5764 5762 5760 5759 5757 5755 5754 5752 5750 5749 5747 5746 5744 5743 5741 5740 5738 5737 5735 5734 5733 5732 5731 5729 5727 5726 5724 5723 5721 5720 5719 5717 5716 5715 5713 5712 5712 5711 5710 5710 5711 5711
5785 5784 5784 5783 5783 5782 5781 5780 5778 5777 5776 5774 5773 5771 5770 5768 5767 5765 5764 5762 5761 5759 5757 5756 5754 5752 5751 5749 5747 5746 5744 5742 5741 5739 5738 5736 5735 5733 5732 5730 5728 5727 5726 5725 5724 5723 5721 5720 5718 5717 5716 5715 5713 5713 5711 5709 5708 5707 5706 5706 5706 5706 5706
5782 5781 5781 5780 5779 5778 5777 5776 5774 5773 5772 5770 5769 5767 5766 5764 5762 5761 5759 5758 5756 5754 5753 5751 5749 5748 5746 5744 5742 5741 5739 5737 5735 5734 5732 5731 5729 5728 5726 5725 5723 5722 5720 5719 5719 5718 5716 5715 5713 5712 5711 5710 5709 5708 5707 5706 5704 5703 5702 5702 5701 5701 5701
5778 5778 5777 5776 5775 5774 5773 5772 5771 5770 5768 5767 5765 5763 5761 5760 5758 5756 5755 5753 5751 5750 5748 5746 5744 5742 5740 5739 5737 5735 5733 5731 5729 5728 5726 5725 5723 5721 5720 5719 5717 5716 5715 5713 5712 5712 5711 5710 5709 5707 5706 5705 5704 5703 5702 5701 5700 5698 5697 5697 5697 5696 5696
5775 5774 5773 5773 5772 5771 5770 5769 5767 5766 5764 5762 5761 5759 5757 5755 5753 5752 5750 5748 5746 5745 5743 5741 5739 5737 5735 5733 5731 5729 5727 5725 5723 5721 5720 5718 5717 5715 5713 5712 5711 5710 5708 5707 5706 5705 5705 5704 5703 5702 5701 5700 5699 5698 5697 5696 5695 5694 5693 5692 5692 5692 5691
5771 5771 5770 5769 5768 5767 5766 5765 5763 5762 5760 5758 5756 5754 5753 5751 5749 5747 5745 5743 5742 5740 5738 5736 5734 5731 5729 5727 5725 5723 5721 5719 5717 5715 5713 5711 5710 5708 5707 5705 5704 5703 5702 5701 5700 5699 5698 5697 5697 5697 5695 5694 5693 5693 5692 5691 5690 5689 5689 5688 5688 5688 5687
5768 5767 5766 5765 5764 5763 5762 5761 5759 5757 5756 5754 5752 5750 5748 5746 5744 5743 5741 5739 5737 5735 5733 5731 5729 5727 5725 5722 5720 5718 5716 5714 5712 5710 5708 5705 5703 5701 5700 5698 5697 5695 5694 5693 5692 5692 5691 5690 5690 5690 5689 5688 5687 5687 5686 5686 5685 5684 5684 5683 5683 5683 5682
5764 5764 5763 5762 5760 5759 5758 5757 5755 5753 5751 5749 5748 5746 5744 5742 5740 5738 5736 5734 5732 5730 5728 5726 5724 5722 5719 5717 5715 5713 5710 5708 5706 5704 5702 5700 5697 5695 5693 5691 5689 5688 5687 5686 5685 5684 5683 5682 5682 5682 5683 5682 5681 5680 5680 5680 5680 5679 5678 5678 5678 5677 5678
5761 5760 5759 5758 5756 5755 5754 5752 5751 5749 5747 5745 5743 5741 5739 5737 5735 5733 5731 5729 5727 5725 5723 5721 5719 5716 5714 5711 5709 5706 5704 5702 5699 5697 5695 5693 5691 5689 5686 5684 5682 5680 5679 5678 5677 5676 5675 5675 5674 5674 5675 5675 5674 5674 5674 5674 5673 5673 5673 5673 5673 5672 5672
5757 5756 5755 5754 5753 5751 5750 5748 5747 5745 5743 5741 5739 5737 5735 5733 5731 5729 5727 5725 5723 5721 5718 5716 5713 5710 5708 5705 5702 5700 5697 5695 5693 5690 5688 5686 5683 5681 5679 5677 5674 5672 5670 5669 5668 5668 5667 5666 5666 5666 5666 5667 5666 5666 5666 5667 5667 5667 5667 5666 5667 5667 5667
5753 5752 5751 5750 5749 5747 5746 5744 5742 5741 5739 5737 5735 5733 5731 5729 5727 5725 5723 5720 5718 5715 5713 5710 5707 5704 5702 5699 5696 5693 5691 5688 5686 5684 5681 5679 5676 5674 5672 5669 5667 5665 5662 5660 5659 5658 5658 5657 5657 5657 5657 5658 5658 5658 5658 5659 5660 5660 5660 5660 5660 5661 5661
5749 5748 5747 5746 5745 5743 5742 5740 5738 5737 5735 5733 5731 5729 5727 5725 5723 5720 5718 5716 5713 5710 5707 5704 5702 5699 5696 5693 5691 5688 5685 5682 5680 5677 5674 5672 5669 5666 5663 5661 5659 5656 5654 5652 5650 5649 5648 5648 5647 5648 5648 5648 5649 5650 5651 5651 5651 5652 5653 5653 5654 5655 5655
5745 5744 5743 5742 5740 5739 5737 5736 5734 5732 5731 5729 5727 5725 5722 5720 5718 5716 5713 5711 5708 5705 5702 5700 5697 5694 5691 5688 5685 5682 5679 5676 5673 5670 5667 5664 5661 5658 5655 5652 5649 5647 5644 5642 5641 5639 5638 5638 5637 5638 5638 5639 5640 5641 5642 5643 5643 5644 5645 5646 5646 5648 5649
5741 5740 5739 5738 5736 5735 5733 5732 5730 5728 5726 5724 5722 5720 5718 5716 5714 5711 5709 5706 5703 5701 5698 5695 5693 5690 5687 5684 5681 5677 5674 5670 5667 5664 5660 5657 5653 5650 5647 5644 5640 5637 5634 5632 5630 5628 5627 5627 5627 5627 5628 5629 5629 5631 5633 5634 5635 5637 5637 5638 5639 5641 5642
5737 5736 5735 5734 5732 5731 5730 5728 5726 5724 5722 5720 5718 5716 5714 5712 5709 5707 5704 5702 5700 5697 5695 5692 5689 5686 5683 5680 5676 5673 5669 5665 5662 5658 5654 5650 5646 5642 5639 5635 5632 5628 5624 5621 5619 5617 5616 5615 5615 5616 5617 5618 5619 5620 5623 5625 5627 5628 5630 5630 5632 5634 5635
5733 5732 5731 5730 5728 5727 5726 5724 5722 5720 5718 5716 5714 5712 5710 5708 5705 5703 5701 5699 5696 5694 5691 5688 5685 5682 5679 5675 5672 5668 5665 5661 5657 5652 5648 5644 5640 5636 5631 5627 5623 5619 5615 5611 5608 5606 5604 5603 5603 5603 5605 5607 5609 5610 5612 5614 5617 5620 5622 5623 5625 5627 5628
5728 5727 5727 5726 5725 5723 5722 5720 5718 5716 5714 5713 5711 5709 5706 5704 5702 5700 5698 5695 5693 5690 5687 5684 5681 5678 5674 5671 5667 5664 5660 5656 5652 5648 5643 5639 5634 5629 5625 5620 5616 5611 5606 5602 5598 5594 5592 5591 5591 5591 5593 5595 5597 5600 5601 5604 5608 5611 5614 5615 5617 5619 5621
5724 5724 5723 5722 5721 5719 5718 5716 5714 5713 5711 5709 5707 5705 5703 5701 5699 5696 5694 5691 5689 5686 5683 5680 5676 5673 5670 5666 5663 5659 5656 5652 5648 5644 5639 5634 5629 5624 5619 5613 5608 5603 5598 5593 5587 5583 5581 5579 5579 5579 5581 5583 5586 5589 5592 5595 5599 5603 5605 5607 5610 5612 5614
5721 5720 5719 5718 5717 5716 5714 5713 5711 5709 5708 5706 5704 5702 5700 5698 5695 5693 5690 5688 5685 5681 5678 5675 5672 5669 5666 5662 5659 5655 5652 5648 5643 5639 5634 5629 5624 5619 5613 5607 5601 5595 5589 5584 5578 5573 5570 5569 5568 5568 5570 5573 5575 5579 5583 5587 5590 5594 5597 5600 5602 5605 5607
5717 5716 5716 5715 5713 5712 5711 5709 5708 5706 5704 5702 5701 5699 5697 5694 5692 5689 5686 5683 5680 5677 5674 5671 5668 5664 5661 5658 5654 5651 5647 5643 5639 5635 5630 5625 5620 5614 5608 5602 5595 5588 5581 5575 5570 5565 5562 5560 5559 5558 5560 5563 5566 5570 5575 5580 5583 5586 5589 5592 5594 5597 5600
5714 5713 5712 5711 5710 5709 5708 5706 5705 5703 5701 5699 5697 5695 5693 5691 5688 5685 5682 5679 5676 5673 5670 5667 5664 5660 5657 5654 5650 5646 5643 5639 5635 5631 5626 5621 5616 5610 5604 5598 5590 5583 5575 5569 5564 5560 5556 5554 5552 5552 5553 5555 5559 5563 5569 5575 5578 5580 5582 5584 5587 5591 5594
5711 5710 5709 5708 5707 5706 5704 5703 5701 5699 5698 5696 5694 5692 5689 5687 5684 5682 5679 5676 5672 5669 5666 5663 5660 5657 5654 5650 5647 5643 5639 5635 5631 5627 5622 5617 5612 5607 5601 5595 5587 5579 5572 5565 5560 5556 5553 5551 5549 5548 5549 5551 5553 5558 5563 5569 5573 5575 5576 5578 5581 5585 5587